Find Starlink 1134

NORAD ID: 45048 Int'l Des: 2020-006 Owner: SPXS Country: US Constellation: starlink operational
LEOCIRCULAR

实时位置

正在加载3D地球...

关于 Starlink 1134

正在加载描述...

即将过境

Passes for default location (London). Set your location on the main map for personalized predictions.

高度历史

Loading altitude history...

两行轨道根数

1 45048U 20006E 26132.80399763 .00070772 00000-0 11229-2 0 9998
2 45048 53.0275 291.4741 0004748 0.6189 359.4825 15.52737088347073
Epoch: May 12, 2026 • Age: 5 hours

当前状态

高度 411.9 km
速度 7.66 km/s
星下点 10.94°N, 138.36°W
发射日期 Jan 29, 2020
运行时间 6.2 years
类型 internet

技术详情

分类 Payload
质量 260.00 kg
干质量 248.00 kg
总质量 260.00 kg
长度 0.20 m
直径 2.80 m
跨度 9.00 m
形状 Box + pan
制造商 SPXS
平台类型 Starlink
阶段状态 In Orbit
所有者/国家 SPXS/US

Most Searched